TimeNST,TemperatureF,Dew PointF,Humidity,Sea Level PressureIn,VisibilityMPH,Wind Direction,Wind SpeedMPH,Gust SpeedMPH,PrecipitationIn,Events,Conditions,WindDirDegrees,DateUTC
12:30 AM,39.4,34.3,82,-9999,-9999.0,ENE,21.9,33.4,N/A,,Unknown,60,2013-03-04 04:00:00
1:30 AM,39.9,34.3,80,-9999,-9999.0,ENE,19.6,36.8,N/A,,Unknown,70,2013-03-04 05:00:00
2:30 AM,38.8,33.8,82,-9999,-9999.0,ENE,13.8,29.9,N/A,,Unknown,70,2013-03-04 06:00:00
3:30 AM,38.8,33.8,82,-9999,-9999.0,ENE,12.7,32.2,N/A,,Unknown,70,2013-03-04 07:00:00
4:30 AM,38.1,33.3,83,-9999,-9999.0,ENE,15.0,32.2,N/A,,Unknown,70,2013-03-04 08:00:00
5:30 AM,37.8,31.6,79,-9999,-9999.0,ENE,17.3,28.8,0.02,,Unknown,70,2013-03-04 09:00:00
6:30 AM,37.2,33.3,86,-9999,-9999.0,ENE,16.1,29.9,0.02,,Unknown,70,2013-03-04 10:00:00
7:30 AM,37.6,33.4,85,-9999,-9999.0,ENE,16.1,27.6,0.04,,Unknown,70,2013-03-04 11:00:00
8:30 AM,38,34,78,,,ENE,17.3,,,,,70,2013-03-04 12:00:00
8:30 AM,38.3,33.6,83,-9999,-9999.0,ENE,17.3,27.6,0.07,,Unknown,70,2013-03-04 12:00:00
9:30 AM,38.7,34.7,86,-9999,-9999.0,ENE,13.8,26.5,0.02,,Unknown,70,2013-03-04 13:00:00
10:30 AM,39.0,35.2,86,-9999,-9999.0,ENE,18.4,32.2,0.02,,Unknown,70,2013-03-04 14:00:00
11:30 AM,40.5,35.6,83,-9999,-9999.0,East,11.5,27.6,0.04,,Unknown,80,2013-03-04 15:00:00
12:30 PM,42.1,36.1,79,-9999,-9999.0,East,18.4,34.5,0.03,,Unknown,80,2013-03-04 16:00:00
1:30 PM,42.6,36.3,78,-9999,-9999.0,ENE,19.6,34.5,0.02,,Unknown,70,2013-03-04 17:00:00
2:30 PM,41,35,71,,,ENE,13.8,,,,,70,2013-03-04 18:00:00
2:30 PM,41.2,34.9,78,-9999,-9999.0,ENE,13.8,24.2,N/A,,Unknown,70,2013-03-04 18:00:00
3:30 PM,39.7,34.9,83,-9999,-9999.0,ENE,9.2,20.7,N/A,,Unknown,70,2013-03-04 19:00:00
4:30 PM,38.8,33.6,82,-9999,-9999.0,East,11.5,24.2,N/A,,Unknown,80,2013-03-04 20:00:00
5:30 PM,38.7,31.5,75,-9999,-9999.0,ENE,10.4,20.7,N/A,,Unknown,70,2013-03-04 21:00:00
6:30 PM,38.1,31.8,78,-9999,-9999.0,ENE,8.1,18.4,N/A,,Unknown,60,2013-03-04 22:00:00
7:30 PM,38.5,32.0,78,-9999,-9999.0,ENE,10.4,-,N/A,,Unknown,60,2013-03-04 23:00:00
8:30 PM,38,31,68,,,ENE,12.7,,,,,70,2013-03-05 00:00:00
8:30 PM,38.1,31.3,76,-9999,-9999.0,ENE,12.7,23.0,N/A,,Unknown,70,2013-03-05 00:00:00
9:30 PM,36.7,31.6,82,-9999,-9999.0,ENE,13.8,24.2,0.01,,Unknown,70,2013-03-05 01:00:00
10:30 PM,37.8,30.7,76,-9999,-9999.0,East,17.3,33.4,N/A,,Unknown,80,2013-03-05 02:00:00
11:30 PM,37.2,30.4,76,-9999,-9999.0,ENE,21.9,34.5,N/A,,Unknown,70,2013-03-05 03:00:00